Marysville, OH

1:27 AM EDT on August 30, 2016 (GMT -0400)
Marysville

Weather History for KMRT - February, 2013

Change the Weather History Date:

Wednesday, February 13, 2013

  Actual Average (KDLZ) Record (KDLZ)
Temperature  
Mean Temperature 30 °F -  
Max Temperature 32 °F 34 °F 69 °F (1938)
Min Temperature 27 °F 15 °F -8 °F (1979)
Degree Days  
Heating Degree Days 36    
Moisture  
Dew Point 25 °F    
Average Humidity 82    
Maximum Humidity 90    
Minimum Humidity 71    
Precipitation  
Precipitation 0.00 in - - ()
Sea Level Pressure  
Sea Level Pressure 29.82 in    
Wind  
Wind Speed 4 mph (NNW)    
Max Wind Speed 9 mph    
Max Gust Speed -    
Visibility 7 miles    
Events      
Averages and records for this station are not official NWS values.
T = Trace of Precipitation, MM = Missing Value Source: NWS Daily Summary

Daily Weather History Graph

Daily Weather History Graph

Search for Another Location

Airport or City:

Trip Planner

Search our weather history database for the weather conditions in past years. The results will help you decide how hot, cold, wet, or windy it might be!

Date:

Astronomy

Feb. 13, 2013 Rise Set
Actual Time 7:28 AM EST 6:06 PM EST
Civil Twilight 7:00 AM EST 6:34 PM EST
Nautical Twilight 6:29 AM EST 7:06 PM EST
Astronomical Twilight 5:57 AM EST 7:38 PM EST
Moon 8:57 AM EST (2/13) 10:09 PM EST (2/13)
Length of Visible Light 11h 34m
Length of Day
10h 38m
Waxing Crescent, 13% of the Moon is Illuminated
Feb 13
Waxing Crescent
Feb 17
First Quarter
Feb 25
Full
Mar 4
Last Quarter
Mar 11
New

Hourly Weather History & Observations

Time (EST) Temp. Windchill Dew Point Humidity Pressure Visibility Wind Dir Wind Speed Gust Speed Precip Events Conditions
12:14 AM 30.6 °F 27.1 °F 25.2 °F 80% 29.91 in 10.0 mi North 3.5 mph - N/A   Clear
12:33 AM 30.0 °F 26.5 °F 25.3 °F 83% 29.91 in 10.0 mi North 3.5 mph - N/A   Clear
12:54 AM 30.0 °F - 25.5 °F 83% 29.91 in 7.0 mi Calm Calm - N/A   Clear
1:13 AM 29.1 °F 24.1 °F 24.8 °F 84% 29.90 in 7.0 mi North 4.6 mph - N/A   Clear
1:34 AM 28.8 °F - 24.8 °F 85% 29.89 in 7.0 mi Calm Calm - N/A   Clear
1:54 AM 28.6 °F 24.8 °F 25.0 °F 86% 29.89 in 7.0 mi NNE 3.5 mph - N/A   Mostly Cloudy
2:14 AM 28.8 °F 25.0 °F 25.2 °F 86% 29.88 in 7.0 mi North 3.5 mph - N/A   Mostly Cloudy
2:34 AM 28.8 °F 25.0 °F 25.2 °F 86% 29.88 in 7.0 mi North 3.5 mph - N/A   Mostly Cloudy
2:54 AM 28.0 °F - 24.8 °F 88% 29.88 in 7.0 mi Calm Calm - N/A   Mostly Cloudy
3:14 AM 27.9 °F 24.0 °F 24.8 °F 88% 29.88 in 5.0 mi North 3.5 mph - N/A   Mostly Cloudy
3:34 AM 27.9 °F 22.6 °F 24.8 °F 88% 29.88 in 5.0 mi North 4.6 mph - N/A   Overcast
3:54 AM 27.9 °F 22.6 °F 24.8 °F 88% 29.88 in 5.0 mi North 4.6 mph - N/A   Overcast
4:14 AM 28.2 °F 22.0 °F 25.3 °F 89% 29.87 in 5.0 mi North 5.8 mph - N/A   Overcast
4:34 AM 28.4 °F 23.3 °F 25.0 °F 87% 29.86 in 5.0 mi North 4.6 mph - N/A   Overcast
4:54 AM 28.2 °F 22.0 °F 24.4 °F 86% 29.86 in 7.0 mi North 5.8 mph - N/A   Overcast
5:14 AM 28.2 °F 23.1 °F 23.9 °F 84% 29.85 in 7.0 mi North 4.6 mph - N/A   Overcast
5:34 AM 28.2 °F 23.1 °F 23.9 °F 84% 29.84 in 7.0 mi North 4.6 mph - N/A   Overcast
5:54 AM 28.0 °F 22.8 °F 23.7 °F 84% 29.83 in 7.0 mi NNE 4.6 mph - N/A   Overcast
6:14 AM 27.5 °F 23.6 °F 23.7 °F 86% 29.83 in 7.0 mi NNE 3.5 mph - N/A   Overcast
6:34 AM 27.9 °F 24.0 °F 23.9 °F 85% 29.82 in 7.0 mi NNE 3.5 mph - N/A   Overcast
6:53 AM 27.5 °F 21.1 °F 23.7 °F 86% 29.81 in 7.0 mi North 5.8 mph - N/A   Overcast
7:14 AM 27.7 °F 20.4 °F 23.9 °F 86% 29.80 in 7.0 mi North 6.9 mph - N/A   Overcast
7:34 AM 27.9 °F 21.5 °F 24.3 °F 86% 29.78 in 5.0 mi NNE 5.8 mph - N/A   Overcast
7:53 AM 27.9 °F 19.8 °F 24.3 °F 86% 29.77 in 5.0 mi NNE 8.1 mph - N/A   Overcast
8:14 AM 28.0 °F 19.3 °F 24.1 °F 85% 29.78 in 7.0 mi NNE 9.2 mph - N/A   Overcast
8:34 AM 28.4 °F 19.7 °F 24.1 °F 84% 29.79 in 7.0 mi NNE 9.2 mph - N/A   Overcast
8:53 AM 28.2 °F 20.2 °F 24.3 °F 85% 29.79 in 7.0 mi NNE 8.1 mph - N/A   Overcast
9:14 AM 28.4 °F 21.2 °F 24.3 °F 84% 29.80 in 7.0 mi North 6.9 mph - N/A   Overcast
9:34 AM 28.8 °F 22.6 °F 24.4 °F 84% 29.81 in 7.0 mi NNE 5.8 mph - N/A   Overcast
9:53 AM 28.8 °F 20.2 °F 24.6 °F 84% 29.81 in 7.0 mi North 9.2 mph - N/A   Overcast
10:14 AM 29.1 °F 20.6 °F 24.4 °F 83% 29.81 in 7.0 mi NNE 9.2 mph - N/A   Overcast
10:34 AM 29.3 °F 24.3 °F 24.3 °F 81% 29.82 in 7.0 mi NNE 4.6 mph - N/A   Overcast
10:53 AM 29.5 °F 23.4 °F 24.4 °F 81% 29.81 in 7.0 mi NNE 5.8 mph - N/A   Overcast
11:14 AM 30.0 °F 24.1 °F 25.0 °F 82% 29.81 in 7.0 mi NNE 5.8 mph - N/A   Overcast
11:34 AM 29.8 °F 26.3 °F 24.6 °F 81% 29.80 in 7.0 mi NE 3.5 mph - N/A   Overcast
11:53 AM 30.0 °F 26.5 °F 24.8 °F 81% 29.80 in 7.0 mi NE 3.5 mph - N/A   Overcast
12:14 PM 30.2 °F - 24.6 °F 80% 29.79 in 7.0 mi Calm Calm - N/A   Overcast
12:34 PM 30.6 °F - 24.8 °F 79% 29.78 in 7.0 mi Calm Calm - N/A   Overcast
12:53 PM 30.4 °F 26.9 °F 24.8 °F 80% 29.77 in 7.0 mi NW 3.5 mph - N/A   Overcast
1:14 PM 30.7 °F 24.9 °F 24.8 °F 79% 29.75 in 7.0 mi North 5.8 mph - N/A   Overcast
1:34 PM 30.7 °F 24.1 °F 24.8 °F 79% 29.75 in 7.0 mi NNW 6.9 mph - N/A   Overcast
1:53 PM 31.1 °F 23.7 °F 24.8 °F 77% 29.75 in 7.0 mi North 8.1 mph - N/A   Overcast
2:14 PM 31.1 °F 25.4 °F 25.0 °F 78% 29.75 in 7.0 mi NNW 5.8 mph - N/A   Overcast
2:34 PM 31.5 °F 25.8 °F 24.6 °F 76% 29.75 in 7.0 mi NNW 5.8 mph - N/A   Overcast
2:53 PM 31.8 °F 25.4 °F 24.6 °F 75% 29.75 in 7.0 mi North 6.9 mph - N/A   Overcast
3:14 PM 32.0 °F 26.4 °F 25.2 °F 76% 29.75 in 7.0 mi North 5.8 mph - N/A   Overcast
3:34 PM 32.0 °F 28.7 °F 25.3 °F 76% 29.76 in 7.0 mi North 3.5 mph - N/A   Overcast
3:53 PM 32.0 °F 25.6 °F 24.8 °F 75% 29.76 in 7.0 mi North 6.9 mph - N/A   Mostly Cloudy
4:14 PM 32.0 °F 26.4 °F 24.3 °F 73% 29.77 in 7.0 mi NNW 5.8 mph - N/A   Scattered Clouds
4:34 PM 32.0 °F 28.7 °F 23.7 °F 71% 29.76 in 10.0 mi NNW 3.5 mph - N/A   Clear
4:53 PM 32.0 °F - 23.7 °F 71% 29.77 in 10.0 mi Calm Calm - N/A   Clear
5:14 PM 32.0 °F 28.7 °F 23.7 °F 71% 29.77 in 10.0 mi NNW 3.5 mph - N/A   Clear
5:34 PM 32.0 °F - 24.4 °F 74% 29.78 in 10.0 mi Calm Calm - N/A   Clear
5:54 PM 31.6 °F - 24.8 °F 76% 29.78 in 10.0 mi Calm Calm - N/A   Clear
6:14 PM 30.9 °F 26.2 °F 25.2 °F 79% 29.79 in 10.0 mi WSW 4.6 mph - N/A   Clear
6:34 PM 30.0 °F 26.5 °F 25.0 °F 82% 29.79 in 10.0 mi SW 3.5 mph - N/A   Clear
6:54 PM 29.1 °F 25.4 °F 25.2 °F 85% 29.80 in 10.0 mi WSW 3.5 mph - N/A   Clear
7:14 PM 28.8 °F 23.7 °F 24.8 °F 85% 29.82 in 10.0 mi WSW 4.6 mph - N/A   Clear
7:34 PM 29.5 °F 24.5 °F 25.0 °F 83% 29.82 in 7.0 mi WSW 4.6 mph - N/A   Clear
7:54 PM 28.8 °F 23.7 °F 24.6 °F 84% 29.83 in 7.0 mi SW 4.6 mph - N/A   Clear
8:14 PM 28.8 °F 23.7 °F 24.8 °F 85% 29.83 in 7.0 mi SW 4.6 mph - N/A   Clear
8:34 PM 28.8 °F 25.0 °F 24.6 °F 84% 29.83 in 7.0 mi SW 3.5 mph - N/A   Clear
8:54 PM 28.4 °F 23.3 °F 24.4 °F 85% 29.83 in 7.0 mi SW 4.6 mph - N/A   Clear
9:14 PM 29.1 °F 23.0 °F 24.6 °F 83% 29.83 in 7.0 mi SW 5.8 mph - N/A   Clear
9:33 PM 28.8 °F 21.7 °F 24.4 °F 84% 29.84 in 7.0 mi SW 6.9 mph - N/A   Clear
9:54 PM 28.6 °F 22.4 °F 24.3 °F 84% 29.84 in 7.0 mi SW 5.8 mph - N/A   Clear
10:14 PM 28.9 °F 21.9 °F 24.4 °F 83% 29.85 in 7.0 mi SW 6.9 mph - N/A   Clear
10:33 PM 28.8 °F 21.7 °F 24.6 °F 84% 29.85 in 7.0 mi SW 6.9 mph - N/A   Clear
10:54 PM 28.4 °F 22.2 °F 24.8 °F 86% 29.85 in 7.0 mi SW 5.8 mph - N/A   Clear
11:14 PM 28.4 °F 21.2 °F 25.3 °F 88% 29.85 in 5.0 mi SW 6.9 mph - N/A   Clear
11:33 PM 28.8 °F 20.9 °F 25.7 °F 88% 29.85 in 5.0 mi SW 8.1 mph - N/A   Clear
11:54 PM 28.8 °F 21.7 °F 26.1 °F 90% 29.85 in 5.0 mi SW 6.9 mph - N/A   Clear